This is the latest recevied weather packets stored in our database for station/object KO4LCK. If no packets are shown the sender has not sent any weather packets the latest 10 day(s).
| Time | Temp. | Humidity | Pressure | Rain* | Wind** | Luminosity | Snow |
|---|---|---|---|---|---|---|---|
| 1777592029 | 17.78° C | 66% | 1013.4 hPa | 0 mm | - | 35 W/m² | - |
| 1777591727 | 18.33° C | 63% | 1013.3 hPa | 0 mm | - | 41 W/m² | - |
| 1777591422 | 18.89° C | 60% | 1013.3 hPa | 0 mm | - | 67 W/m² | - |
| 1777591118 | 18.89° C | 60% | 1013.3 hPa | 0 mm | - | 67 W/m² | - |
| 1777590813 | 18.89° C | 61% | 1013.4 hPa | 0 mm | - | 66 W/m² | - |
| 1777590510 | 18.89° C | 61% | 1013.4 hPa | 0 mm | - | 65 W/m² | - |
| 1777590206 | 18.89° C | 60% | 1013.3 hPa | 0 mm | - | 77 W/m² | - |
| 1777589904 | 18.89° C | 53% | 1013.2 hPa | 0 mm | - | 83 W/m² | - |
| 1777589599 | 18.89° C | 52% | 1013.1 hPa | 0 mm | - | 81 W/m² | - |
| 1777589297 | 19.44° C | 50% | 1013.2 hPa | 0 mm | - | 87 W/m² | - |
| 1777588995 | 19.44° C | 52% | 1013.2 hPa | 0 mm | - | 90 W/m² | - |
| 1777588690 | 19.44° C | 52% | 1013.3 hPa | 0 mm | - | 89 W/m² | - |
| 1777588386 | 20° C | 51% | 1013.3 hPa | 0 mm | - | 98 W/m² | - |
| 1777588082 | 20° C | 51% | 1013.2 hPa | 0 mm | - | 101 W/m² | - |
| 1777587778 | 20° C | 53% | 1013.3 hPa | 0 mm | - | 116 W/m² | - |
| 1777587477 | 20.56° C | 52% | 1013.4 hPa | 0 mm | - | 126 W/m² | - |
| 1777587174 | 20.56° C | 50% | 1013.2 hPa | 0 mm | - | 137 W/m² | - |
| 1777586869 | 20.56° C | 50% | 1013.1 hPa | 0 mm | - | 154 W/m² | - |
| 1777586565 | 20.56° C | 48% | 1013.1 hPa | 0 mm | - | 175 W/m² | - |
| 1777586261 | 21.11° C | 48% | 1013.1 hPa | 0 mm | - | 187 W/m² | - |
| 1777585958 | 21.11° C | 47% | 1012.9 hPa | 0 mm | - | 221 W/m² | - |
| 1777585654 | 21.67° C | 47% | 1013 hPa | 0 mm | - | 205 W/m² | - |
| 1777585349 | 21.11° C | 49% | 1013.1 hPa | 0 mm | - | 304 W/m² | - |
| 1777585044 | 21.11° C | 49% | 1013 hPa | 0 mm | - | 259 W/m² | - |
| 1777584740 | 21.11° C | 48% | 1013.2 hPa | 0 mm | - | 339 W/m² | - |
* Rain latest hour (hover to see other rain measurements)
** Current wind speed in m/s (hover to see current wind gust speed)